Regional Weather Roundup
Issued by NWS

Home | Current Version | Previous Version | Text Only | Print | Product List | Glossary On
Versions: 1 2 3 4 5 6 7 8 9 10 11 12 13 14 15 16 17 18 19 20 21 22 23 24 25 26 27 28 29 30 31 32 33 34 35 36 37 38 39 40 41 42 43 44 45 46 47 48 49 50
000
ASPQ40 PGUM 030910
RWRPQ
WEATHER ROUNDUP FOR THE MARIANAS AND MICRONESIA
NATIONAL WEATHER SERVICE TIYAN GU
700 PM CHST THU SEP 03 2015

GUZ001>004-031000-
MARIANA ISLANDS-

CITY           SKY/WX    TMP DP  RH WIND       PRES   REMARKS
GUAM AIRPORT   CLOUDY    79  75  89 NW3       29.86R
ANDERSEN AFB   HVY RAIN  79  75  89 CALM      29.87R FOG
ROTA AIRPORT   MOCLDY    79  77  94 NE3       29.85S
TINIAN AP      MOCLDY    81  77  89 NE6       29.83R
SAIPAN AP      PTCLDY    81  79  94 NE10      29.84R

$$

PMZ161-031000-
REPUBLIC OF PALAU-

CITY           SKY/WX    TMP DP  RH WIND       PRES   REMARKS
KOROR AP       MOCLDY    84  75  74 W7        29.87R HX  92
KOROR WSO      MOCLDY    84  77  79 W7        29.89R HX  94

$$

PMZ171>174-031000-
FEDERATED STATES OF MICRONESIA-

CITY           SKY/WX    TMP DP  RH WIND       PRES   REMARKS
YAP AIRPORT    MOCLDY    84  77  79 SW9       29.87R HX  94
CHUUK AP       CLOUDY    81  77  89 SW10      29.87R
POHNPEI AP     NOT AVBL
POHNPEI WSO    CLOUDY    82  77  83 W8        29.93R HX  91
KOSRAE AP      NOT AVBL

$$

PMZ181-031000-
REPUBLIC OF THE MARSHALL ISLANDS-

CITY           SKY/WX    TMP DP  RH WIND       PRES   REMARKS
KWAJALEIN AP   PTCLDY    84  73  70 SW5       29.90S HX  91
MAJURO AP      NOT AVBL
MAJURO WSO     CLOUDY    84  79  84 W9        29.88R HX  96

$$




USA.gov is the U.S. government's official web portal to all federal, state and local government web resources and services.